www.pogodaiklimat.ru
ПОГОДА на Островах Санта-Круз
Время
(UTC), дата
18 26.03
21 26.03
00 27.03
03 27.03
06 27.03
12 27.03
21 27.03
00 28.03
03 28.03
06 28.03
09 28.03
12 28.03
18 28.03
00 29.03
03 29.03
06 29.03
09 29.03
12 29.03
21 29.03
00 30.03
03 30.03
06 30.03
09 30.03
12 30.03
21 30.03
03 31.03
06 31.03
09 31.03
12 31.03
21 31.03
00 1.04
03 1.04
06 1.04
09 1.04
12 1.04
15 1.04
18 1.04
21 1.04
03 2.04
06 2.04
09 2.04
Ветер
(напр.,м/с)
Видим. Явления Облачность Т
(С)
Тd
(С)
f
(%)
Тe
(С)
Тes
(С)
Комфортность P
(гПа)
Po
(гПа)
Тmin
(С)
Tmax
(С)
R
(мм)
R24
(мм)
S
(см)
штиль 0 20 км {ливн. осадки} 1/1 450 м
[Cu Sc Ci sp]
+25.6 +25.2 98 +37 +37 очень
душно
1009.0 1006.2 0.1
штиль 0 20 км осадки на расстоянии 4/3 480 м
[Cb cap Ci ing]
+27.5 +26.4 94 +42 +47 опасность
перегрева
1010.1 1007.3
В 2 20 км осадки на расстоянии 6/5 500 м
[Cu med, cong Ac trans Cs]
+31.6 +26.5 74 +48 +57 опасность
перегрева
1009.9 1007.2 +24.8 17 17
В 2 20 км 5/5 500 м
[Cu med, cong]
+31.0 +26.8 78 +48 +56 опасность
перегрева
1007.7 1005.0
штиль 0 20 км осадки на расстоянии 9/9 480 м
[Cb cap]
+27.6 +25.4 88 +40 +41 очень
душно
1007.6 1004.9
штиль 0 20 км 4/4 500 м
[Cu med, cong]
+25.7 +25.0 96 +37 +37 очень
душно
1009.9 1007.1 +32.0
штиль 0 20 км слаб. дождь 10/5 450 м
[Cu Sc Ac As]
+25.0 +24.3 96 +35 +36 очень
душно
1009.7 1006.9 5
штиль 0 20 км слаб. дождь 10/5 480 м
[Cb calv Ac As]
+25.0 +25.0 100 +36 +39 очень
душно
1009.6 1006.8 +25.0 24 28.0
С 2 10 км осадки на расстоянии 10/8 480 м
[Cb cap Ac As]
+27.5 +25.5 89 +40 +41 очень
душно
1007.8 1005.1 0.8
штиль 0 20 км осадки на расстоянии 10/5 450 м
[Cb cap Ac As]
+27.4 +25.4 89 +40 +40 очень
душно
1007.6 1004.9 0.8
СЗ 3 10 км слаб. ливневой дождь 10/6 450 м
[Cu Sc Ac As]
+25.8 +24.9 95 +37 +37 очень
душно
1009.2 1006.4 0.2
С 3 10 км слаб. дождь 10/8 450 м
[Cu Sc As op]
+26.0 +25.1 95 +37 +37 очень
душно
1009.6 1006.8 +32.4 1
штиль 0 20 км слаб. дождь 9/4 480 м
[Cu Sc As op]
+26.0 +25.6 98 +38 +38 очень
душно
1006.9 1004.1 3
штиль 0 20 км слаб. ливневой дождь 10/6 480 м
[Cb cap Ac As]
+26.6 +26.1 97 +40 +43 очень
душно
1009.4 1006.6 +25.0 4 9.0
штиль 0 20 км осадки на расстоянии {ливн. осадки} 10/5 500 м
[Cb cap Ac As]
+27.5 +25.6 89 +40 +44 очень
душно
1007.3 1004.6 2
штиль 0 20 км осадки на расстоянии {ливн. осадки} 10/6 480 м
[Cb cap Ac As]
+27.0 +25.6 92 +40 +40 очень
душно
1007.4 1004.7 2
штиль 0 20 км ливневой дождь {гроза} 10/6 450 м
[Cb cap As op]
+25.0 +25.0 100 +36 +36 очень
душно
1009.5 1006.7 6
штиль 0 20 км слаб. дождь 10/5 420 м
[Cb cap As op]
+24.5 +24.5 100 +34 +34 очень
душно
1009.7 1006.9 +28.0 8
штиль 0 20 км мгла 5/3 480 м
[Cb cap Ac trans Cs]
+26.1 +25.7 98 +38 +43 очень
душно
1008.4 1005.6 0.8
З 3 20 км мгла 6/6 540 м
[Cb cap Ac trans Ci ing]
+30.0 +26.4 81 +46 +53 опасность
перегрева
1008.1 1005.4 +24.4 16 16
З 3 20 км осадки на расстоянии 9/9 480 м
[Cb cap]
+29.5 +26.0 81 +44 +46 опасность
перегрева
1006.1 1003.4
штиль 0 20 км слаб. ливневой дождь 10/6 480 м
[Cb cap Ac As]
+25.7 +24.8 95 +36 +37 очень
душно
1006.1 1003.3 4
С 2 10 км в посл. час ливневой дождь 9/8 450 м
[Cb cap Ac As Cs]
+25.5 +25.2 98 +37 +37 очень
душно
1008.3 1005.5 2
СЗ 7 10 км осадки на расстоянии {ливн. осадки} 10/8 450 м
[Cb cap Ac As]
+25.1 +24.4 96 +35 +35 очень
душно
1009.1 1006.3 +31.0 2
СЗ 3 20 км осадки на расстоянии {ливн. осадки} 9/4 450 м
[Cb cap Ac As]
+28.0 +25.2 85 +41 +42 опасность
перегрева
1009.1 1006.4 0.4
СЗ 3 20 км слаб. морось 9/9 500 м
[Cb cap]
+29.5 +26.0 81 +44 +45 опасность
перегрева
1006.2 1003.5 0.2
СЗ 3 20 км осадки на расстоянии 8/8 480 м
[Cb cap]
+28.7 +25.4 82 +42 +42 опасность
перегрева
1006.7 1004.0 0.2
З 6 10 км ливневой дождь {морось} 10/8 450 м
[Cb cap Ac As]
+27.0 +25.4 91 +39 +39 очень
душно
1009.1 1006.3 3
С 5 20 км в посл. час ливневой дождь 10/8 420 м
[Cb cap Ac As]
+27.1 +26.4 96 +41 +41 опасность
перегрева
1009.8 1007.0 +30.0 6
штиль 0 20 км слаб. дождь 10/5 480 м
[Cb cap As op]
+25.0 +24.3 96 +35 +35 очень
душно
1008.8 1006.0 33
СЗ 3 20 км осадки на расстоянии {ливн. осадки} 9/4 500 м
[Cb cap Ac trans Cs]
+29.0 +25.5 81 +43 +48 опасность
перегрева
1009.7 1007.0 +24.0 0.2 42.0
СЗ 3 20 км 10/3 540 м
[Cb cap Cs]
+30.0 +27.2 85 +48 +55 опасность
перегрева
1007.8 1005.1
штиль 0 20 км 10/4 500 м
[Cb cap Ac As Cs]
+29.0 +26.0 84 +44 +44 опасность
перегрева
1007.9 1005.2
штиль 0 20 км 10/3 480 м
[Cu med, cong Ac As Cs]
+27.0 +25.6 92 +40 +40 очень
душно
1009.3 1006.5
штиль 0 20 км 10/3 450 м
[Cu med, cong Cs]
+26.0 +24.6 92 +37 +37 очень
душно
1009.0 1006.2 +30.5
штиль 0 20 км 8/3 450 м
[Cu med, cong Ac trans Cs]
+26.5 +25.6 95 +39 +39 очень
душно
1007.8 1005.0
СВ 2 20 км осадки на расстоянии 5/5 450 м
[Cu med, cong Ci sp]
+27.0 +25.6 92 +40 +40 очень
душно
1006.8 1004.1
С 4 20 км осадки на расстоянии 8/5 450 м
[Cb calv Cs]
+28.7 +26.3 87 +44 +45 опасность
перегрева
1008.3 1005.6
штиль 0 20 км слаб. ливневой дождь 10/5 480 м
[Cb cap Ac As]
+26.0 +24.0 89 +36 +39 очень
душно
1006.3 1003.5 6
штиль 0 20 км осадки на расстоянии {ливн. осадки} 10/5 480 м
[Cb cap Ac As]
+27.0 +26.2 95 +41 +41 опасность
перегрева
1006.4 1003.7 0.2
штиль 0 20 км осадки на расстоянии {ливн. осадки} 6/4 480 м
[Cb cap Ac trans Cs]
+26.0 +25.3 96 +38 +38 очень
душно
1007.7 1004.9 2
Местоположение метеостанции Острова Санта-Круз (Соломоновы Острова): широта -10.71 долгота 165.79 высота над уровнем моря 24 м.
В архиве по умолчанию представлена погода на Островах Санта-Круз за последнюю неделю. Архивные данные за месяц целиком и за предыдущие месяцы, начиная с января 2011 года, Вы можете получить, выбрав интересующий диапазон дат из раскрывающегося списка и нажав кнопку "Найти!".
*Определитесь, кто Вы:
Внимание! Время в таблицах - всемирное. Для получения местного времени необходимо прибавить поправку, которая равна 11 ч.
Смотрите также архив погоды в соседних городах и на ближайших метеорологических станциях:
Партнеры нашего сайта:      
Пояснения к столбцам:
  • Ветер - указаны скорость ветра в м/с - средняя за 10 мин, порывы в срок и между сроками (в фигурных скобках) и направление, откуда дует ветер: С - северный,
  • СВ - северо-восточный, В - восточный, ЮВ - юго-восточный, Ю - южный, ЮЗ - юго-западный, З - западный, СЗ - северо-западный.
  • Видимость - горизонтальная дальность видимости в метрах или километрах. При видимости от 1 до 10 км при отсутствии осадков обычно наблюдается дымка, при ухудшении видимости до 1 км и менее - туман. В сухую погоду видимость может ухудшаться дымом, пылью или мглою.
  • Явления - указаны атмосферные явления, наблюдавшиеся в срок или в последний час перед сроком; фигурными скобками обозначены явления, наблюдавшиеся между сроками (за 1-3 часа до срока); квадратными скобками обозначены град или гололедные отложения с указанием их диаметра в мм.
  • Облачность - указаны через наклонную черту общая и нижняя облачность в баллах и высота нижней границы облаков в метрах; квадратными скобками обозначены формы облаков: Ci - перистые, Cs - перисто-слоистые, Cc - перисто-кучевые, Ac - высококучевые, As - высокослоистые, Sc - слоисто-кучевые, Ns - слоисто-дождевые, Cu - кучевые, Cb - кучево-дождевые. Подробнее классификацию облаков см. в Атласе облаков (PDF).
  • T - Температура воздуха - температура, измеренная на высоте 2 м над землей.
  • Td - Температура точки росы - температура, при понижении до которой содержащийся в воздухе водяной пар достигнет насыщения.
  • f - Относительная влажность воздуха - влажноcть воздуха, измеренная на высоте 2 м над землей.
  • Te - Эффективная температура - температура, которую ощущает одетый по сезону человек в тени. Характеристика душности погоды. При расчете учитывается влияние влажности воздуха и скорости ветра на теплоощущения человека.
  • Tes - Эффективная температура на солнце - температура, которую ощущает человек, с поправкой на солнечный нагрев. Характеристика знойности погоды. Зависит от высоты солнца над горизонтом, облачности и скорости ветра. Ночью, в пасмурную погоду, а также при ветре 12 м/с и более поправка равна нулю.
  • P - Атмосферное давление - приведенное к уровню моря атмосферное давление.
  • Po - Атмосферное давление - измеренное на уровне метеостанции атмосферное давление.
  • Tmin - Минимальная температура - минимум температуры воздуха на высоте 2 м над землей.
  • Tmax - Максимальная температура - максимум температуры воздуха на высоте 2 м над землей.
  • R - Количество осадков - Количество выпавших осадков за период времени, мм. При наведении курсора мыши на число - период времени, за который выпало указанное количество осадков.
  • R24 - Количество осадков - Количество выпавших осадков за 24 часа, мм.
  • S - Снежный покров - Высота снежного покрова, см. При наведении курсора мыши на число - состояние снежного покрова и степень покрытия местности в баллах.